Home   Weather   Thane   Past weeks

Flag for India Past Weather in Thane, Maharashtra, India — Yesterday and Last 2 Weeks

Now
81 °F

Passing clouds.


Feels Like: 85 °F
Forecast: 79 / 94 °F
Wind: 3 mph from North

Location: Mumbai / Santacruz

Current Time: Apr 27, 2017 at 5:02:41 am

Latest Report: Apr 27, 2017 at 4:30 am


Visibility: 2 mi

Pressure: 29.83 "Hg

Humidity: 74%

Dew Point: 72 °F

Location of ThaneLocation

Past Weather in Thane — Graph

°F

Thane Temperature Yesterday

Maximum temperature yesterday: 91 °F (at 12:00 pm)
Minimum temperature yesterday: 81 °F (at 5:30 am)
Average temperature yesterday: 85 °F

High & Low Weather Summary for the Past Weeks

 TemperatureHumidityPressure
High97 °F (Apr 16, 3:30 pm)89% (Apr 12, 3:30 am)29.92 "Hg (Apr 12, 3:30 am)
Low81 °F (Apr 13, 4:00 am)36% (Apr 16, 6:00 pm)29.68 "Hg (Apr 15, 3:30 pm)
Average86 °F70%29.79 "Hg
* Reported Apr 12 3:30 am — Apr 27 4:00 am, Thane, Weather by CustomWeather, © 2017

Note: Actual official high and low records may vary slightly from our data, if they occured in-between our weather recording intervals... More about our weather records

Advertising

Thane Weather History for the Previous 24 Hours

Scroll right to see more
 ConditionsComfort  
Time TempWeatherWind HumidityBarometerVisibility
4:00 am
Thu, Apr 27
82 °FPassing clouds.5 mph70%29.83 "Hg2 mi
3:30 am82 °FPassing clouds.6 mph74%29.83 "Hg2 mi
3:00 am82 °FPassing clouds.5 mph74%29.83 "Hg2 mi
2:30 am82 °FPassing clouds.5 mph74%29.83 "Hg2 mi
2:00 am82 °FPassing clouds.7 mph74%29.83 "Hg2 mi
1:30 am84 °FPassing clouds.6 mph70%29.86 "Hg2 mi
1:00 am82 °FPassing clouds.6 mph74%29.86 "Hg2 mi
12:30 am82 °FPassing clouds.8 mph74%29.86 "Hg2 mi
12:00 am82 °FPassing clouds.7 mph74%29.86 "Hg2 mi
11:30 pm
Wed, Apr 26
82 °FPassing clouds.8 mph79%29.86 "Hg2 mi
11:00 pm84 °FPassing clouds.7 mph74%29.86 "Hg2 mi
10:30 pm84 °FPassing clouds.7 mph74%29.86 "Hg2 mi
10:00 pm84 °FPassing clouds.3 mph74%29.86 "Hg2 mi
9:30 pm84 °FPassing clouds.9 mph74%29.86 "Hg2 mi
9:00 pm84 °FPassing clouds.6 mph74%29.83 "Hg2 mi
8:30 pm84 °FHaze.5 mph74%29.83 "Hg2 mi
8:00 pm84 °FHaze.7 mph74%29.80 "Hg2 mi
7:30 pm84 °FHaze.13 mph74%29.80 "Hg2 mi
7:00 pm84 °FHaze.14 mph74%29.80 "Hg2 mi
6:30 pm86 °FPassing clouds.10 mph70%29.77 "Hg2 mi
5:30 pm86 °FPassing clouds.8 mph70%29.77 "Hg2 mi
5:00 pm88 °FPassing clouds.8 mph66%29.77 "Hg2 mi
4:30 pm88 °FClear.16 mph66%29.80 "Hg2 mi
4:00 pm88 °FClear.13 mph66%29.80 "Hg2 mi
3:30 pm88 °FClear.8 mph62%29.80 "Hg2 mi
3:00 pm90 °FClear.9 mph59%29.80 "Hg2 mi
2:30 pm88 °FClear.14 mph62%29.80 "Hg2 mi
2:00 pm88 °FClear.9 mph62%29.83 "Hg2 mi
1:30 pm91 °FClear.13 mph56%29.83 "Hg2 mi
1:00 pm90 °FClear.12 mph59%29.86 "Hg2 mi
12:30 pm90 °FClear.10 mph55%29.86 "Hg2 mi
12:00 pm91 °FClear.12 mph52%29.86 "Hg2 mi
11:30 am90 °FPassing clouds.12 mph55%29.89 "Hg2 mi
11:00 am90 °FPassing clouds.9 mph52%29.89 "Hg2 mi
10:30 am90 °FPassing clouds.8 mph52%29.89 "Hg2 mi
10:00 am90 °FPassing clouds.7 mph55%29.89 "Hg2 mi
9:30 am86 °FHaze.3 mph62%29.89 "Hg2 mi
9:00 am86 °FHaze.3 mph62%29.89 "Hg2 mi
8:30 am84 °FHaze.6 mph66%29.86 "Hg2 mi
8:00 am82 °FHaze.6 mph70%29.86 "Hg2 mi
7:30 am81 °FHaze.6 mph74%29.86 "Hg2 mi
7:00 am81 °FHaze.6 mph74%29.86 "Hg2 mi
6:30 am81 °FPassing clouds.5 mph74%29.83 "Hg2 mi
6:00 am81 °FPassing clouds.3 mph74%29.83 "Hg2 mi
5:30 am81 °FPassing clouds.3 mph74%29.83 "Hg2 mi
5:00 am82 °FPassing clouds.No wind70%29.80 "Hg2 mi
Weather by CustomWeather, © 2017

See weather overviewHow to use our weather pages